Weather History for Madisonville, KY

Change the Weather History Date:

Thursday, September 19, 2013

  Actual Average (KOWB) Record (KOWB)
Temperature  
Mean Temperature 78 °F -  
Max Temperature 88 °F 80 °F 97 °F (1972)
Min Temperature 68 °F 57 °F 41 °F (1938)
Cooling Degree Days 12    
Growing Degree Days 28 (Base 50)    
Moisture  
Dew Point 71 °F    
Average Humidity 83    
Maximum Humidity 100    
Minimum Humidity 60    
Precipitation  
Precipitation 0.00 in - - ()
Sea Level Pressure  
Sea Level Pressure 30.05 in    
Wind  
Wind Speed 5 mph (SSW)    
Max Wind Speed 13 mph    
Max Gust Speed 16 mph    
Visibility 8 miles    
Events      
Averages and records for this station are not official NWS values.
T = Trace of Precipitation, MM = Missing Value Source: NWS Daily Summary

Daily Weather History Graph

Daily Weather History Graph

Search for Another Location

Airport:

Trip Planner

Search our weather history database for the weather conditions in past years. The results will help you decide how hot, cold, wet, or windy it might be!

Date:

Astronomy

Sep. 19, 2013 Rise Set
Actual Time 6:35 AM CDT 6:50 PM CDT
Civil Twilight 6:09 AM CDT 7:16 PM CDT
Nautical Twilight 5:38 AM CDT 7:47 PM CDT
Astronomical Twilight 5:07 AM CDT 8:18 PM CDT
Moon 6:50 PM CDT (9/19) 6:42 AM CDT (9/19)
Length of Visible Light 13h 07m
Length of Day
12h 15m
Full, 100% of the Moon is Illuminated
Sep 19
Full
Sep 26
Last Quarter
Oct 4
New
Oct 11
First Quarter
Oct 18
Full

Hourly Weather History & Observations

Time (CDT) Temp. Heat Index Dew Point Humidity Pressure Visibility Wind Dir Wind Speed Gust Speed Precip Events Conditions
12:15 AM 71.1 °F - 70.5 °F 98% 30.07 in 5.0 mi Calm Calm - N/A   Clear
12:35 AM 69.8 °F - 69.8 °F 100% 30.07 in 4.0 mi Calm Calm - N/A   Clear
12:55 AM 70.2 °F - 70.2 °F 100% 30.07 in 5.0 mi South 4.6 mph - N/A   Clear
1:15 AM 70.5 °F - 70.2 °F 99% 30.08 in 5.0 mi South 4.6 mph - N/A   Clear
1:35 AM 70.2 °F - 70.0 °F 99% 30.07 in 5.0 mi South 3.5 mph - N/A   Clear
1:55 AM 69.3 °F - 69.1 °F 99% 30.07 in 4.0 mi SSW 3.5 mph - N/A   Clear
2:15 AM 69.8 °F - 69.8 °F 100% 30.07 in 4.0 mi SSW 3.5 mph - N/A   Clear
2:35 AM 68.4 °F - 68.4 °F 100% 30.07 in 3.0 mi SSW 3.5 mph - N/A   Clear
2:55 AM 69.8 °F - 69.8 °F 100% 30.07 in 5.0 mi SSW 4.6 mph - N/A   Clear
3:15 AM 70.5 °F - 69.8 °F 98% 30.07 in 7.0 mi SSW 3.5 mph - N/A   Clear
3:35 AM 70.0 °F - 69.3 °F 98% 30.07 in 5.0 mi SSW 3.5 mph - N/A   Clear
3:55 AM 68.2 °F - 68.2 °F 100% 30.07 in 5.0 mi SSW 3.5 mph - N/A   Clear
4:15 AM 68.5 °F - 68.5 °F 100% 30.07 in 5.0 mi South 4.6 mph - N/A   Clear
4:35 AM 69.1 °F - 69.1 °F 100% 30.07 in 5.0 mi South 4.6 mph - N/A   Clear
4:55 AM 69.1 °F - 68.9 °F 99% 30.07 in 5.0 mi SSW 3.5 mph - N/A   Clear
5:15 AM 69.1 °F - 68.9 °F 99% 30.07 in 5.0 mi SSW 5.8 mph - N/A   Clear
5:35 AM 69.8 °F - 68.9 °F 97% 30.07 in 7.0 mi SSW 4.6 mph - N/A   Clear
5:55 AM 69.6 °F - 68.9 °F 98% 30.08 in 7.0 mi SSW 3.5 mph - N/A   Clear
6:15 AM 69.4 °F - 68.7 °F 98% 30.08 in 7.0 mi SSW 4.6 mph - N/A   Clear
6:35 AM 69.4 °F - 68.5 °F 97% 30.09 in 7.0 mi SSW 4.6 mph - N/A   Clear
6:55 AM 69.8 °F - 68.5 °F 96% 30.09 in 7.0 mi SSW 4.6 mph - N/A   Clear
7:15 AM 70.2 °F - 68.9 °F 96% 30.09 in 7.0 mi SSW 3.5 mph - N/A   Scattered Clouds
7:35 AM 70.9 °F - 69.3 °F 95% 30.10 in 7.0 mi SSW 3.5 mph - N/A   Scattered Clouds
7:55 AM 71.8 °F - 69.8 °F 93% 30.10 in 7.0 mi SSW 6.9 mph - N/A   Mostly Cloudy
8:15 AM 72.5 °F - 70.0 °F 92% 30.10 in 7.0 mi SSW 5.8 mph - N/A   Scattered Clouds
8:35 AM 73.8 °F - 70.7 °F 90% 30.10 in 10.0 mi SW 9.2 mph - N/A   Clear
8:55 AM 75.2 °F - 71.2 °F 87% 30.10 in 10.0 mi SW 10.4 mph - N/A   Clear
9:15 AM 77.0 °F - 72.0 °F 84% 30.10 in 10.0 mi SW 8.1 mph - N/A   Clear
9:35 AM 78.6 °F - 72.3 °F 81% 30.10 in 10.0 mi SW 10.4 mph - N/A   Scattered Clouds
9:55 AM 79.0 °F - 72.3 °F 80% 30.10 in 10.0 mi SSW 10.4 mph - N/A   Clear
10:15 AM 80.4 °F 84.7 °F 72.5 °F 77% 30.10 in 10.0 mi SSW 10.4 mph - N/A   Mostly Cloudy
10:35 AM 80.8 °F 85.4 °F 72.9 °F 77% 30.11 in 10.0 mi SW 9.2 mph 16.1 mph N/A   Overcast
10:55 AM 81.0 °F 85.4 °F 72.3 °F 75% 30.11 in 10.0 mi WSW 12.7 mph - N/A   Overcast
11:15 AM 82.2 °F 87.3 °F 72.5 °F 72% 30.10 in 10.0 mi SW 11.5 mph - N/A   Mostly Cloudy
11:35 AM 83.1 °F 88.1 °F 71.8 °F 68% 30.11 in 10.0 mi SW 10.4 mph - N/A   Overcast
11:55 AM 84.0 °F 89.9 °F 72.5 °F 68% 30.09 in 10.0 mi SSW 8.1 mph - N/A   Mostly Cloudy
12:15 PM 84.4 °F 90.3 °F 72.1 °F 67% 30.09 in 10.0 mi SW 9.2 mph - N/A   Scattered Clouds
12:35 PM 83.1 °F 88.1 °F 71.8 °F 68% 30.08 in 10.0 mi SSW 5.8 mph - N/A   Mostly Cloudy
12:55 PM 84.6 °F 90.0 °F 71.4 °F 65% 30.08 in 10.0 mi SW 9.2 mph - N/A   Overcast
1:15 PM 84.6 °F 90.0 °F 71.8 °F 65% 30.07 in 10.0 mi SW 9.2 mph - N/A   Overcast
1:35 PM 86.0 °F 92.2 °F 72.0 °F 63% 30.06 in 10.0 mi South 3.5 mph - N/A   Mostly Cloudy
1:55 PM 86.7 °F 93.3 °F 72.3 °F 62% 30.05 in 10.0 mi SW 9.2 mph - N/A   Mostly Cloudy
2:15 PM 85.8 °F 91.8 °F 72.1 °F 63% 30.05 in 10.0 mi WSW 5.8 mph - N/A   Mostly Cloudy
2:35 PM 86.2 °F 92.6 °F 72.1 °F 63% 30.04 in 10.0 mi SW 5.8 mph - N/A   Scattered Clouds
2:55 PM 87.8 °F 94.7 °F 72.1 °F 60% 30.03 in 10.0 mi SSW 8.1 mph - N/A   Scattered Clouds
3:15 PM 87.4 °F 94.0 °F 72.0 °F 60% 30.03 in 10.0 mi WSW 10.4 mph - N/A   Mostly Cloudy
3:35 PM 86.7 °F 93.7 °F 72.7 °F 63% 30.02 in 10.0 mi SW 8.1 mph - N/A   Scattered Clouds
3:55 PM 85.8 °F 91.8 °F 71.8 °F 63% 30.02 in 10.0 mi SW 9.2 mph - N/A   Mostly Cloudy
4:15 PM 85.3 °F 91.1 °F 71.8 °F 64% 30.01 in 10.0 mi SW 8.1 mph - N/A   Overcast
4:35 PM 86.2 °F 92.2 °F 72.0 °F 62% 30.01 in 10.0 mi SW 9.2 mph - N/A   Overcast
4:55 PM 85.1 °F 90.8 °F 71.8 °F 64% 30.01 in 10.0 mi SSW 9.2 mph - N/A   Scattered Clouds
5:15 PM 84.6 °F 90.0 °F 71.6 °F 65% 30.01 in 10.0 mi SSW 6.9 mph - N/A   Scattered Clouds
5:35 PM 84.6 °F 90.3 °F 72.0 °F 66% 30.00 in 10.0 mi SSW 5.8 mph - N/A   Scattered Clouds
5:55 PM 84.7 °F 90.4 °F 72.0 °F 65% 29.99 in 10.0 mi SSW 5.8 mph - N/A   Scattered Clouds
6:15 PM 83.7 °F 89.2 °F 72.1 °F 68% 29.99 in 10.0 mi SSW 4.6 mph - N/A   Mostly Cloudy
6:35 PM 82.4 °F 87.4 °F 72.1 °F 71% 29.99 in 10.0 mi South 3.5 mph - N/A   Scattered Clouds
6:55 PM 81.0 °F 85.2 °F 71.8 °F 74% 29.99 in 10.0 mi South 5.8 mph - N/A   Scattered Clouds
7:15 PM 79.9 °F - 71.2 °F 75% 29.98 in 10.0 mi SSW 4.6 mph - N/A   Clear
7:35 PM 79.2 °F - 71.2 °F 77% 29.99 in 10.0 mi SSW 5.8 mph - N/A   Clear
7:55 PM 78.4 °F - 71.2 °F 78% 29.99 in 10.0 mi SSW 5.8 mph - N/A   Clear
8:15 PM 78.6 °F - 71.2 °F 78% 29.99 in 10.0 mi SSW 4.6 mph - N/A   Clear
8:35 PM 76.1 °F - 71.1 °F 84% 29.99 in 10.0 mi SSW 3.5 mph - N/A   Clear
8:55 PM 76.5 °F - 71.1 °F 83% 30.00 in 10.0 mi Calm Calm - N/A   Clear
9:15 PM 73.4 °F - 70.9 °F 92% 30.00 in 10.0 mi South 3.5 mph - N/A   Clear
9:35 PM 73.9 °F - 71.4 °F 92% 30.00 in 10.0 mi SSW 4.6 mph - N/A   Clear
9:55 PM 74.1 °F - 71.4 °F 91% 30.01 in 10.0 mi SSW 3.5 mph - N/A   Clear
10:15 PM 74.5 °F - 72.0 °F 92% 30.01 in 10.0 mi South 5.8 mph - N/A   Clear
10:35 PM 75.2 °F - 71.6 °F 89% 30.01 in 10.0 mi South 4.6 mph - N/A   Clear
10:55 PM 74.5 °F - 71.6 °F 91% 30.01 in 10.0 mi South 4.6 mph - N/A   Clear
11:15 PM 74.3 °F - 71.6 °F 91% 30.01 in 10.0 mi South 4.6 mph - N/A   Clear
11:35 PM 73.9 °F - 71.2 °F 91% 30.01 in 10.0 mi South 4.6 mph - N/A   Clear
11:55 PM 73.2 °F - 70.9 °F 92% 30.00 in 10.0 mi South 4.6 mph - N/A   Clear